[[{"header":{"parameterUnit":"m.s-1","parameterCategory":2,"la1":30.2991,"la2":30.254,"lo1":-89.0895,"lo2":-89.0444,"dy":0.0017,"dx":0.0017,"nx":28,"ny":28,"refTime":"2024-05-25T21:00:00:Z","depth":"0","parameterNumber":2,"parameterNumberName":"U-component_of_CURRENTS"},"data":[0,0,0,0,0,0,0,0,0,0,0,0,0,0,0,0,0,0,0,0,0,0,0,0,0,0,0,0,0,0,0,0,0,0,0,0,0,0,0,0,0,0,0,0,0,0,0,0,0,0,0,0,0,0,0,0,0,0,-0.2932,-0.2933,0,-0.2972,-0.2972,-0.2972,-0.2947,-0.2946,-0.2945,-0.2944,-0.2912,-0.2912,-0.2912,0,0,0,0,0,0,0,0,0,0,0,0,0,-0.2819,-0.2821,-0.2932,-0.2933,-0.2934,-0.2972,-0.2972,-0.2972,-0.2947,-0.2946,-0.2945,-0.2944,-0.2912,-0.2912,-0.2912,0,0,0,0,0,0,0,0,0,0,0,0,0,-0.286,-0.2821,-0.2932,-0.2929,-0.2929,-0.2972,-0.2972,-0.2972,-0.2947,-0.2946,-0.2944,-0.2943,-0.2912,-0.2912,-0.2912,-0.2935,0,0,-0.2911,-0.2911,0,0,0,0,0,0,0,0,-0.2858,-0.2864,-0.2928,-0.2929,-0.293,-0.2956,-0.292,-0.2957,-0.2947,-0.2936,-0.2944,-0.2943,-0.2924,-0.2922,-0.2928,-0.2934,-0.2932,-0.2911,-0.2911,-0.2911,-0.2911,0,0,0,0,0,0,0,-0.2855,-0.2862,-0.2944,-0.293,-0.293,-0.292,-0.2924,-0.2927,-0.2932,-0.2937,-0.2936,-0.2947,-0.2923,-0.2928,-0.2927,-0.2932,-0.2911,-0.2911,-0.2911,-0.2911,-0.2954,-0.2955,0,0,0,0,0,0,-0.2861,-0.286,-0.2943,-0.2945,-0.2895,-0.2923,-0.2928,-0.2946,-0.2933,-0.2932,-0.2948,-0.2946,-0.2929,-0.2927,-0.2926,-0.2954,-0.2911,-0.2911,-0.2911,-0.2953,-0.2954,-0.2955,0,0,0,0,0,0,-0.2858,-0.2868,-0.2941,-0.2906,-0.2915,-0.2927,-0.2947,-0.2947,-0.2952,-0.2943,-0.2939,-0.2953,-0.2928,-0.2926,-0.2934,-0.2952,-0.2911,-0.2911,-0.2951,-0.2953,-0.2955,-0.3009,0,0,0,0,0,0,-0.2855,-0.2867,-0.2876,-0.2907,-0.2917,-0.2972,-0.2949,-0.2949,-0.2963,-0.296,-0.2946,-0.2942,-0.2927,-0.2934,-0.2934,-0.2951,-0.2911,-0.295,-0.2952,-0.2954,-0.3006,-0.3013,-0.3019,0,0,0,0,0,-0.2851,-0.2872,-0.2876,-0.2886,-0.2931,-0.2974,-0.2978,-0.2979,-0.2964,-0.2975,-0.2965,-0.2942,-0.2948,-0.2935,-0.2934,-0.2952,-0.2948,-0.2951,-0.2954,-0.3003,-0.3011,-0.3018,0,0,0,0,0,0,-0.2821,-0.2873,-0.2877,-0.2911,-0.2942,-0.2971,-0.298,-0.2985,-0.2987,-0.2978,-0.296,-0.2956,-0.2971,-0.2958,-0.2944,-0.2972,-0.2944,-0.2947,-0.2982,-0.299,-0.2996,-0.2995,-0.291,0,0,0,0,0,-0.2823,-0.2851,-0.2897,-0.292,-0.2939,-0.296,-0.2974,-0.2982,-0.2994,-0.2993,-0.2986,-0.2979,-0.2984,-0.2983,-0.2984,-0.3,-0.2978,-0.3011,-0.3018,-0.3023,-0.3023,-0.3018,-0.3023,-0.2964,-0.2964,-0.2964,0,0,-0.2813,-0.2847,-0.286,-0.2915,-0.2935,-0.2976,-0.2964,-0.2995,-0.3022,-0.299,-0.301,-0.3002,-0.2995,-0.3013,-0.3018,-0.3002,-0.3028,-0.3026,-0.3031,-0.3028,-0.3021,-0.3027,-0.3032,-0.2966,-0.2966,-0.2966,0,0,-0.282,-0.2845,-0.2875,-0.2912,-0.296,-0.2981,-0.2994,-0.303,-0.3036,-0.3063,-0.3047,-0.3051,-0.3057,-0.3058,-0.3058,-0.3102,-0.3064,-0.3102,-0.3131,-0.3126,-0.3131,-0.3134,-0.3108,-0.3109,-0.3102,-0.3103,-0.3103,0,-0.2803,-0.2855,-0.2887,-0.2934,-0.2964,-0.2988,-0.3028,-0.3052,-0.3081,-0.3089,-0.3074,-0.3088,-0.308,-0.3105,-0.3118,-0.3116,-0.3097,-0.3101,-0.3134,-0.3137,-0.314,-0.3112,-0.3112,-0.3106,-0.3105,-0.3105,-0.3105,0,-0.2842,-0.2884,-0.2907,-0.2974,-0.301,-0.3049,-0.3096,-0.312,-0.3126,-0.3142,-0.3163,-0.3156,-0.3157,-0.3164,-0.3153,-0.3176,-0.3151,-0.3144,-0.3112,-0.3149,-0.3117,-0.3116,-0.311,-0.3109,-0.3108,-0.3107,0,0,-0.2793,-0.2911,-0.2915,-0.2952,-0.3036,-0.3064,-0.3121,-0.317,-0.3191,-0.3211,-0.3228,-0.3245,-0.3228,-0.3228,-0.3217,-0.3217,-0.3219,-0.319,-0.3188,-0.3158,-0.3192,-0.3088,-0.3076,-0.3217,-0.3217,-0.3217,-0.3159,0,-0.2806,-0.2894,-0.2954,-0.3021,-0.3065,-0.3118,-0.3167,-0.3212,-0.3235,-0.3257,-0.3259,-0.3269,-0.3259,-0.3251,-0.3255,-0.3234,-0.3221,-0.3235,-0.3165,-0.3163,-0.3061,-0.3074,-0.2942,-0.2872,-0.3158,-0.3158,-0.3158,0,-0.2815,-0.2877,-0.295,-0.3045,-0.3068,-0.3109,-0.3172,-0.322,-0.327,-0.3285,-0.3302,-0.33,-0.3312,-0.3287,-0.3271,-0.3279,-0.3237,-0.3215,-0.3212,-0.3093,-0.3056,-0.2883,-0.2859,-0.2845,-0.3156,-0.3157,-0.3157,0,-0.2748,-0.2864,-0.2916,-0.2953,-0.3069,-0.3097,-0.3145,-0.3212,-0.3247,-0.3289,-0.3306,-0.3325,-0.3319,-0.3298,-0.3252,-0.3262,-0.3212,-0.3219,-0.3082,-0.3074,-0.2936,-0.2914,-0.2883,-0.3189,-0.3189,-0.3189,-0.319,0,-0.2733,-0.2769,-0.2885,-0.2914,-0.296,-0.3052,-0.3094,-0.3147,-0.3219,-0.3243,-0.3299,-0.3304,-0.3321,-0.3297,-0.3256,-0.3155,-0.321,-0.308,-0.3053,-0.295,-0.2931,-0.289,-0.2924,-0.3187,-0.3188,-0.3188,-0.3189,0,-0.2642,-0.2731,-0.2788,-0.2902,-0.2929,-0.2952,-0.3057,-0.3089,-0.3172,-0.3203,-0.3215,-0.3286,-0.3252,-0.3241,-0.3193,-0.3139,-0.3009,-0.3009,-0.2874,-0.2832,-0.269,-0.2732,-0.2672,-0.2598,-0.286,-0.2857,-0.2854,0,-0.2599,-0.2623,-0.2737,-0.276,-0.2806,-0.2863,-0.2904,-0.3028,-0.3064,-0.3169,-0.3166,-0.3182,-0.3145,-0.3055,-0.2969,-0.2867,-0.2876,-0.2684,-0.2681,-0.2654,-0.2683,-0.2727,-0.2673,-0.2522,-0.2517,-0.2513,-0.251,0,-0.2493,-0.2537,-0.2581,-0.2643,-0.2688,-0.2739,-0.2803,-0.284,-0.2969,-0.3002,-0.3021,-0.3009,-0.295,-0.2806,-0.2696,-0.2611,-0.2625,-0.2595,-0.2608,-0.2444,-0.2449,-0.2372,-0.259,-0.2473,-0.2477,-0.248,-0.2482,-0.2483,-0.2379,-0.2386,-0.2451,-0.2492,-0.2546,-0.2577,-0.2549,-0.2649,-0.268,-0.2686,-0.2781,-0.2705,-0.2665,-0.2495,-0.2426,-0.2267,-0.2354,-0.2192,-0.2252,-0.2306,-0.2212,-0.2335,-0.2165,-0.2166,-0.2168,-0.2169,-0.2171,0,-0.2226,-0.2259,-0.2295,-0.2347,-0.2337,-0.2409,-0.2441,-0.2365,-0.2332,-0.2408,-0.2376,-0.2325,-0.2207,-0.219,-0.2078,-0.1975,-0.1943,-0.1919,-0.1969,-0.1934,-0.2057,-0.2018,-0.1757,-0.1757,-0.1757,-0.1757,-0.1757,-0.1757,-0.2144,-0.2128,-0.2164,-0.211,-0.2125,-0.1975,-0.1932,-0.1869,-0.185,-0.1776,-0.1786,-0.1827,-0.1914,-0.2093,-0.198,-0.1868,-0.1848,-0.1769,-0.1825,-0.1944,-0.1976,-0.2006,-0.1976,-0.1711,-0.1711,-0.1616,-0.1616,-0.1616]},{"header":{"parameterUnit":"m.s-1","parameterCategory":2,"la1":30.2991,"la2":30.254,"lo1":-89.0895,"lo2":-89.0444,"dy":0.0017,"dx":0.0017,"nx":28,"ny":28,"refTime":"2024-05-25T21:00:00:Z","depth":"0","parameterNumber":3,"parameterNumberName":"V-component_of_CURRENTS"},"data":[0,0,0,0,0,0,0,0,0,0,0,0,0,0,0,0,0,0,0,0,0,0,0,0,0,0,0,0,0,0,0,0,0,0,0,0,0,0,0,0,0,0,0,0,0,0,0,0,0,0,0,0,0,0,0,0,0,0,-0.0091,-0.009,0,0.0016,0.0017,0.0018,0.0097,0.0098,0.0098,0.0099,0.0248,0.0251,0.0255,0,0,0,0,0,0,0,0,0,0,0,0,0,-0.0164,-0.0163,-0.0091,-0.009,-0.0089,0.0015,0.0017,0.0019,0.0097,0.0098,0.0098,0.0099,0.0247,0.0251,0.0255,0,0,0,0,0,0,0,0,0,0,0,0,0,-0.0101,-0.0163,-0.0091,-0.0038,-0.0032,0.0015,0.0017,0.0019,0.0097,0.0098,0.0099,0.0099,0.0245,0.025,0.0256,0.0271,0,0,0.0271,0.0274,0,0,0,0,0,0,0,0,-0.0105,-0.0098,-0.0047,-0.0042,-0.0035,0.0043,0.0046,0.0105,0.0097,0.0049,0.0099,0.01,0.0182,0.0192,0.0212,0.0278,0.0284,0.0272,0.0275,0.0277,0.0279,0,0,0,0,0,0,0,-0.0109,-0.0102,-0.0047,-0.0046,-0.0039,0.0002,0.0011,0.0058,0.0111,0.0054,0.0059,0.0068,0.0186,0.0207,0.0216,0.0287,0.0272,0.0276,0.028,0.0282,0.039,0.039,0,0,0,0,0,0,-0.013,-0.0107,-0.0051,-0.0044,-0.007,0.0002,0.0013,0.0018,0.011,0.0124,0.0068,0.0072,0.0197,0.021,0.0222,0.0247,0.0277,0.0282,0.0285,0.0391,0.039,0.039,0,0,0,0,0,0,-0.0132,-0.0126,-0.0055,-0.0074,-0.0062,0.0002,0.0008,0.002,0.0041,0.012,0.0136,0.0076,0.0198,0.0214,0.0261,0.0254,0.0284,0.0289,0.0391,0.039,0.039,0.0297,0,0,0,0,0,0,-0.0134,-0.0127,-0.0134,-0.0076,-0.0062,-0.0039,0.0007,0.0021,0.0045,0.0051,0.0132,0.0147,0.02,0.0253,0.0266,0.0261,0.0293,0.0391,0.0391,0.039,0.0301,0.0294,0.0288,0,0,0,0,0,-0.0137,-0.0155,-0.0136,-0.0129,-0.0073,-0.004,-0.003,0.002,0.0044,0.0044,0.0104,0.0145,0.026,0.0257,0.0272,0.0269,0.0391,0.0391,0.039,0.0303,0.0295,0.0288,0,0,0,0,0,0,-0.0193,-0.0147,-0.0124,-0.0128,-0.0092,-0.0028,-0.0025,0.0011,0.0059,0.0065,0.0143,0.0162,0.0198,0.0246,0.0241,0.0299,0.0332,0.0334,0.026,0.0253,0.0247,0.0233,0.0297,0,0,0,0,0,-0.021,-0.021,-0.0156,-0.0161,-0.0147,-0.0088,-0.0069,-0.0036,0.0015,0.0037,0.0095,0.0157,0.0208,0.0239,0.0288,0.0321,0.038,0.0329,0.0323,0.0317,0.0317,0.04,0.0401,0.0388,0.0388,0.0388,0,0,-0.0233,-0.0208,-0.0208,-0.0173,-0.0141,-0.0132,-0.0075,-0.0056,-0.0043,0.0045,0.0076,0.0133,0.021,0.0247,0.0268,0.0287,0.035,0.0317,0.0311,0.0315,0.0399,0.0401,0.0402,0.0388,0.0388,0.0388,0,0,-0.0287,-0.0258,-0.0278,-0.0252,-0.0214,-0.0173,-0.0173,-0.0114,-0.0082,-0.0046,0.0021,0.0075,0.0148,0.0207,0.0246,0.0235,0.0309,0.0246,0.021,0.029,0.0291,0.0294,0.036,0.0369,0.0248,0.0248,0.0248,0,-0.032,-0.0331,-0.028,-0.0289,-0.0273,-0.0199,-0.0211,-0.0169,-0.0102,-0.0074,-0.0051,0.0073,0.0132,0.0196,0.0191,0.0221,0.0274,0.023,0.0281,0.0285,0.0289,0.0356,0.0367,0.0244,0.0244,0.0245,0.0245,0,-0.038,-0.0388,-0.0398,-0.0381,-0.0357,-0.0357,-0.0291,-0.0263,-0.0214,-0.0161,-0.0094,-0.0005,0.0073,0.0097,0.0141,0.0197,0.0227,0.0257,0.0296,0.0284,0.0356,0.0369,0.0237,0.0239,0.024,0.0241,0,0,-0.0458,-0.0447,-0.0449,-0.0456,-0.0405,-0.0392,-0.0367,-0.0317,-0.0292,-0.0217,-0.0174,-0.0083,-0.0022,0.0026,0.0096,0.0165,0.0233,0.0214,0.0221,0.0272,0.0402,0.0462,0.0483,0.0273,0.0274,0.0276,0.0437,0,-0.0524,-0.0571,-0.0533,-0.056,-0.0576,-0.0495,-0.0475,-0.0413,-0.0344,-0.0283,-0.0173,-0.0108,-0.0051,-0.0011,0.0065,0.0196,0.0265,0.0186,0.0413,0.042,0.0469,0.0499,0.0546,0.0697,0.0451,0.0453,0.0455,0,-0.0593,-0.0616,-0.0663,-0.0648,-0.0644,-0.0639,-0.0578,-0.055,-0.0439,-0.0382,-0.0287,-0.0191,-0.0073,-0.0028,0.0189,0.0136,0.0254,0.0355,0.0364,0.0464,0.0505,0.0674,0.0731,0.093,0.0476,0.0474,0.0473,0,-0.0678,-0.0699,-0.0741,-0.0737,-0.0709,-0.0704,-0.0677,-0.0585,-0.0554,-0.0438,-0.0393,-0.0237,-0.0146,0.0017,0.0229,0.0212,0.0473,0.048,0.0646,0.0651,0.0759,0.077,0.1033,0.0628,0.0627,0.0627,0.0626,0,-0.0763,-0.0793,-0.0787,-0.0812,-0.0848,-0.0787,-0.0787,-0.0735,-0.0645,-0.0595,-0.0454,-0.0365,-0.0129,0.0055,0.0225,0.0489,0.0478,0.0653,0.0706,0.0726,0.0733,0.0966,0.1027,0.0633,0.0632,0.063,0.0629,0,-0.085,-0.0848,-0.0897,-0.0893,-0.0896,-0.0918,-0.088,-0.0865,-0.0772,-0.0699,-0.0663,-0.0446,-0.0192,0.0051,0.0348,0.0496,0.0862,0.0821,0.0824,0.0874,0.1192,0.1244,0.1534,0.1662,0.1024,0.1027,0.1029,0,-0.0902,-0.094,-0.0973,-0.1007,-0.1012,-0.1027,-0.1031,-0.095,-0.0915,-0.0732,-0.0696,-0.0439,-0.0218,0.0233,0.0548,0.0878,0.1004,0.1086,0.1062,0.1239,0.1335,0.1358,0.1446,0.1167,0.117,0.1173,0.1175,0,-0.0995,-0.1,-0.1039,-0.1117,-0.1144,-0.116,-0.1149,-0.1132,-0.1,-0.0901,-0.069,-0.0493,-0.0036,0.0396,0.081,0.099,0.1237,0.1148,0.1349,0.149,0.1517,0.1656,0.1018,0.1198,0.1196,0.1194,0.1193,0.1192,-0.1048,-0.1099,-0.1147,-0.1209,-0.1246,-0.1251,-0.1199,-0.1144,-0.1049,-0.0786,-0.0681,-0.0301,0.0257,0.0872,0.1098,0.1546,0.147,0.1655,0.1708,0.172,0.1837,0.1239,0.1463,0.1462,0.1462,0.1461,0.1461,0,-0.1108,-0.1156,-0.1232,-0.1277,-0.129,-0.1287,-0.1232,-0.1104,-0.0922,-0.0689,-0.0437,0.0172,0.0738,0.1247,0.1848,0.2095,0.2144,0.2192,0.2249,0.2318,0.1826,0.1826,0.2117,0.2117,0.2116,0.2116,0.2116,0.2116,-0.1139,-0.1222,-0.1257,-0.1287,-0.1283,-0.1185,-0.1098,-0.091,-0.0698,-0.0248,0.014,0.0425,0.1031,0.1977,0.2554,0.2596,0.2819,0.2771,0.2902,0.2565,0.2518,0.2474,0.2494,0.292,0.2921,0.3388,0.3393,0.3396]}],[{"header":{"parameterUnit":"m.s-1","parameterCategory":2,"la1":30.2991,"la2":30.254,"lo1":-89.0895,"lo2":-89.0444,"dy":0.0017,"dx":0.0017,"nx":28,"ny":28,"refTime":"2024-05-25T21:00:00:Z","depth":"2","parameterNumber":2,"parameterNumberName":"U-component_of_CURRENTS"},"data":[0,0,0,0,0,0,0,0,0,0,0,0,0,0,0,0,0,0,0,0,0,0,0,0,0,0,0,0,0,0,0,0,0,0,0,0,0,0,0,0,0,0,0,0,0,0,0,0,0,0,0,0,0,0,0,0,0,0,-0.2745,-0.2746,0,-0.2789,-0.2789,-0.2789,-0.2774,-0.2773,-0.2773,-0.2772,-0.2755,-0.2756,-0.2756,0,0,0,0,0,0,0,0,0,0,0,0,0,-0.2634,-0.2636,-0.2745,-0.2746,-0.2746,-0.2789,-0.2789,-0.2789,-0.2774,-0.2773,-0.2772,-0.2772,-0.2755,-0.2755,-0.2756,0,0,0,0,0,0,0,0,0,0,0,0,0,-0.2677,-0.2636,-0.2745,-0.2747,-0.2747,-0.2789,-0.2789,-0.279,-0.2774,-0.2773,-0.2772,-0.2771,-0.2755,-0.2755,-0.2756,-0.2777,0,0,-0.2756,-0.2757,0,0,0,0,0,0,0,0,-0.2674,-0.268,-0.2745,-0.2747,-0.2748,-0.2778,-0.2744,-0.2783,-0.2774,-0.276,-0.2772,-0.2771,-0.276,-0.276,-0.2766,-0.2776,-0.2775,-0.2756,-0.2757,-0.2757,-0.2757,0,0,0,0,0,0,0,-0.2671,-0.2678,-0.2758,-0.2747,-0.2748,-0.2741,-0.2746,-0.2751,-0.2761,-0.2761,-0.2761,-0.2772,-0.276,-0.2766,-0.2766,-0.2775,-0.2756,-0.2757,-0.2757,-0.2757,-0.2809,-0.2811,0,0,0,0,0,0,-0.2676,-0.2676,-0.2757,-0.276,-0.2712,-0.2744,-0.2749,-0.2766,-0.2763,-0.2763,-0.2773,-0.2772,-0.2766,-0.2765,-0.2765,-0.2801,-0.2757,-0.2757,-0.2757,-0.2808,-0.281,-0.2811,0,0,0,0,0,0,-0.2673,-0.2683,-0.2755,-0.2721,-0.273,-0.2748,-0.2767,-0.2768,-0.2778,-0.2773,-0.2771,-0.2782,-0.2765,-0.2765,-0.2779,-0.28,-0.2757,-0.2757,-0.2807,-0.2809,-0.281,-0.2866,0,0,0,0,0,0,-0.267,-0.2682,-0.2692,-0.2722,-0.2733,-0.2788,-0.2768,-0.277,-0.2788,-0.2786,-0.278,-0.2777,-0.2765,-0.2779,-0.278,-0.2799,-0.2757,-0.2805,-0.2808,-0.281,-0.2863,-0.287,-0.2876,0,0,0,0,0,-0.2666,-0.2687,-0.2692,-0.2702,-0.2748,-0.279,-0.2795,-0.28,-0.2789,-0.2803,-0.2798,-0.2778,-0.2794,-0.2781,-0.2781,-0.2801,-0.2804,-0.2807,-0.281,-0.286,-0.2868,-0.2876,0,0,0,0,0,0,-0.264,-0.2689,-0.2695,-0.2728,-0.276,-0.2789,-0.2802,-0.2808,-0.2816,-0.2811,-0.2796,-0.2794,-0.2815,-0.2804,-0.2789,-0.2824,-0.2795,-0.2798,-0.2833,-0.2841,-0.2848,-0.2847,-0.2758,0,0,0,0,0,-0.2643,-0.267,-0.2715,-0.2739,-0.2758,-0.2781,-0.2797,-0.2807,-0.2822,-0.2824,-0.2822,-0.282,-0.2829,-0.283,-0.2835,-0.2855,-0.2834,-0.2868,-0.2875,-0.288,-0.2881,-0.2876,-0.2881,-0.282,-0.282,-0.282,0,0,-0.2636,-0.2669,-0.2682,-0.2735,-0.2756,-0.2797,-0.2787,-0.2821,-0.2849,-0.2822,-0.2849,-0.2845,-0.284,-0.2864,-0.2871,-0.2855,-0.2886,-0.2884,-0.2888,-0.2886,-0.2879,-0.2885,-0.289,-0.2822,-0.2822,-0.2822,0,0,-0.2646,-0.2672,-0.2701,-0.2738,-0.2785,-0.2807,-0.2821,-0.2858,-0.2868,-0.2901,-0.2888,-0.2897,-0.2909,-0.2911,-0.2913,-0.2959,-0.2922,-0.2961,-0.2991,-0.2986,-0.2991,-0.2995,-0.297,-0.2971,-0.2961,-0.2961,-0.2961,0,-0.2635,-0.2684,-0.2715,-0.276,-0.2791,-0.2815,-0.2856,-0.2881,-0.2916,-0.2926,-0.2915,-0.2938,-0.2933,-0.296,-0.2976,-0.2974,-0.2956,-0.2961,-0.2994,-0.2997,-0.3,-0.2973,-0.2974,-0.2964,-0.2964,-0.2964,-0.2963,0,-0.2674,-0.2716,-0.2739,-0.2804,-0.284,-0.288,-0.2926,-0.2954,-0.2965,-0.2982,-0.301,-0.3008,-0.3014,-0.3022,-0.3013,-0.3038,-0.3013,-0.3004,-0.2972,-0.301,-0.2979,-0.2979,-0.2969,-0.2967,-0.2967,-0.2966,0,0,-0.2634,-0.2744,-0.275,-0.2785,-0.2868,-0.2896,-0.2955,-0.3005,-0.3029,-0.3055,-0.3077,-0.31,-0.3086,-0.3088,-0.3079,-0.3079,-0.3084,-0.3052,-0.3051,-0.3023,-0.3058,-0.2955,-0.2944,-0.308,-0.308,-0.3081,-0.3026,0,-0.265,-0.2733,-0.2789,-0.2857,-0.29,-0.2953,-0.3004,-0.305,-0.3077,-0.3104,-0.311,-0.3125,-0.3116,-0.3113,-0.3117,-0.3098,-0.3087,-0.3099,-0.303,-0.3027,-0.2927,-0.2942,-0.2729,-0.2655,-0.3025,-0.3025,-0.3025,0,-0.2661,-0.2719,-0.2792,-0.2884,-0.2906,-0.2949,-0.3016,-0.3064,-0.3117,-0.3136,-0.3157,-0.3158,-0.3174,-0.315,-0.3136,-0.3143,-0.3103,-0.3082,-0.3079,-0.2961,-0.2923,-0.2679,-0.264,-0.3024,-0.3024,-0.3024,-0.3024,0,-0.2601,-0.2712,-0.2764,-0.28,-0.2912,-0.2943,-0.2992,-0.306,-0.3097,-0.3144,-0.3163,-0.3185,-0.3183,-0.3163,-0.312,-0.313,-0.3082,-0.3087,-0.2953,-0.2945,-0.2738,-0.2711,-0.306,-0.306,-0.306,-0.306,-0.306,0,-0.259,-0.2628,-0.2738,-0.2767,-0.2816,-0.2904,-0.2951,-0.3004,-0.3077,-0.3102,-0.316,-0.3167,-0.3186,-0.3163,-0.3124,-0.3027,-0.3081,-0.2953,-0.2925,-0.2751,-0.2726,-0.3029,-0.3026,-0.3058,-0.3058,-0.3059,-0.3059,0,-0.2509,-0.2593,-0.265,-0.2761,-0.2788,-0.2814,-0.2918,-0.2952,-0.3036,-0.3068,-0.3083,-0.3151,-0.3118,-0.311,-0.3064,-0.3011,-0.2942,-0.2885,-0.267,-0.2618,-0.2808,-0.281,-0.2746,-0.2742,-0.2739,-0.2736,-0.2733,0,-0.2472,-0.2497,-0.2606,-0.2629,-0.2675,-0.2735,-0.2777,-0.2898,-0.2933,-0.3035,-0.3032,-0.3049,-0.3009,-0.2922,-0.2832,-0.2732,-0.2822,-0.2481,-0.2464,-0.2797,-0.2777,-0.2784,-0.2789,-0.221,-0.2204,-0.2199,-0.2194,0,-0.2378,-0.242,-0.2463,-0.2521,-0.2567,-0.2618,-0.2683,-0.2713,-0.2837,-0.2871,-0.2884,-0.2868,-0.2804,-0.2611,-0.2504,-0.2416,-0.2489,-0.2369,-0.2758,-0.2329,-0.2289,-0.2271,-0.2294,-0.2147,-0.2152,-0.2155,-0.2158,-0.216,-0.2279,-0.2284,-0.2344,-0.2378,-0.2435,-0.246,-0.2436,-0.2515,-0.2539,-0.2528,-0.2636,-0.2522,-0.251,-0.2224,-0.2112,-0.2016,-0.2185,-0.2084,-0.2101,-0.2124,-0.2079,-0.2035,-0.1836,-0.1838,-0.1841,-0.1843,-0.1845,0,-0.2138,-0.2161,-0.2193,-0.2226,-0.219,-0.2297,-0.233,-0.2265,-0.2212,-0.2239,-0.2203,-0.197,-0.1847,-0.1833,-0.1627,-0.1598,-0.1592,-0.152,-0.1522,-0.1569,-0.161,-0.1541,-0.1153,-0.1152,-0.115,-0.1148,0,0,-0.2062,-0.2036,-0.2056,-0.1949,-0.1964,-0.1871,-0.1844,-0.1799,-0.1768,-0.1661,-0.159,-0.1699,-0.1755,-0.1451,-0.1391,-0.1241,-0.1384,-0.1167,-0.1716,-0.1762,-0.1801,-0.1923,-0.1866,0,0,0,0,0]},{"header":{"parameterUnit":"m.s-1","parameterCategory":2,"la1":30.2991,"la2":30.254,"lo1":-89.0895,"lo2":-89.0444,"dy":0.0017,"dx":0.0017,"nx":28,"ny":28,"refTime":"2024-05-25T21:00:00:Z","depth":"2","parameterNumber":3,"parameterNumberName":"V-component_of_CURRENTS"},"data":[0,0,0,0,0,0,0,0,0,0,0,0,0,0,0,0,0,0,0,0,0,0,0,0,0,0,0,0,0,0,0,0,0,0,0,0,0,0,0,0,0,0,0,0,0,0,0,0,0,0,0,0,0,0,0,0,0,0,-0.0197,-0.0196,0,-0.0095,-0.0093,-0.0092,-0.002,-0.002,-0.0019,-0.0019,0.0125,0.0128,0.0132,0,0,0,0,0,0,0,0,0,0,0,0,0,-0.0271,-0.0271,-0.0197,-0.0196,-0.0195,-0.0095,-0.0093,-0.0092,-0.002,-0.002,-0.0019,-0.0019,0.0124,0.0128,0.0132,0,0,0,0,0,0,0,0,0,0,0,0,0,-0.021,-0.027,-0.0197,-0.0148,-0.0143,-0.0095,-0.0093,-0.0091,-0.0021,-0.002,-0.0019,-0.0019,0.0123,0.0128,0.0133,0.0151,0,0,0.0148,0.0151,0,0,0,0,0,0,0,0,-0.0214,-0.0207,-0.0156,-0.0151,-0.0145,-0.0071,-0.0067,-0.0009,-0.0021,-0.0065,-0.0019,-0.0018,0.0062,0.0072,0.0091,0.0158,0.0164,0.0149,0.0152,0.0154,0.0156,0,0,0,0,0,0,0,-0.0218,-0.0211,-0.0155,-0.0155,-0.0148,-0.0111,-0.0102,-0.0055,-0.0005,-0.0061,-0.0056,-0.0047,0.0066,0.0086,0.0095,0.0166,0.0149,0.0153,0.0156,0.0158,0.0277,0.0277,0,0,0,0,0,0,-0.0237,-0.0215,-0.0158,-0.0152,-0.018,-0.0111,-0.01,-0.0094,-0.0006,0.0007,-0.0048,-0.0045,0.0077,0.0089,0.0101,0.0134,0.0154,0.0159,0.0162,0.0276,0.0277,0.0277,0,0,0,0,0,0,-0.0239,-0.0233,-0.0162,-0.0182,-0.0171,-0.0111,-0.0104,-0.0093,-0.0071,0.0003,0.0018,-0.0039,0.0078,0.0093,0.0142,0.014,0.0161,0.0166,0.0276,0.0276,0.0277,0.0197,0,0,0,0,0,0,-0.0242,-0.0235,-0.024,-0.0184,-0.017,-0.0144,-0.0104,-0.0091,-0.0067,-0.0062,0.0016,0.0031,0.008,0.0134,0.0147,0.0147,0.017,0.0276,0.0276,0.0277,0.0199,0.0194,0.019,0,0,0,0,0,-0.0245,-0.0258,-0.0241,-0.0234,-0.0178,-0.0145,-0.0135,-0.0088,-0.0068,-0.0065,-0.0008,0.0028,0.0144,0.0138,0.0154,0.0155,0.0276,0.0276,0.0277,0.0202,0.0195,0.019,0,0,0,0,0,0,-0.0294,-0.025,-0.023,-0.0229,-0.0194,-0.0134,-0.0129,-0.0096,-0.0049,-0.0043,0.003,0.0048,0.0088,0.0133,0.0125,0.019,0.0216,0.0219,0.0154,0.0148,0.0143,0.0128,0.0174,0,0,0,0,0,-0.0309,-0.0307,-0.0256,-0.0257,-0.0243,-0.0188,-0.0169,-0.0138,-0.0088,-0.0067,-0.0011,0.0049,0.01,0.0132,0.018,0.0217,0.0268,0.0229,0.0224,0.0219,0.0218,0.0294,0.0296,0.0277,0.0277,0.0277,0,0,-0.0328,-0.0305,-0.0303,-0.0268,-0.0237,-0.0225,-0.0175,-0.0155,-0.0139,-0.0059,-0.0024,0.003,0.0105,0.0145,0.0168,0.0184,0.025,0.022,0.0215,0.0217,0.0295,0.0297,0.0298,0.0277,0.0277,0.0277,0,0,-0.0374,-0.0347,-0.0362,-0.0336,-0.0298,-0.026,-0.0259,-0.0202,-0.0171,-0.0131,-0.007,-0.0015,0.0059,0.0116,0.0155,0.0154,0.0216,0.0165,0.0136,0.0209,0.0212,0.0214,0.0269,0.0277,0.0169,0.0169,0.0168,0,-0.0403,-0.0409,-0.0362,-0.0366,-0.035,-0.0282,-0.0289,-0.0247,-0.0181,-0.0153,-0.0133,-0.001,0.0047,0.0114,0.0113,0.0143,0.0188,0.0149,0.0202,0.0206,0.021,0.0266,0.0276,0.0165,0.0165,0.0166,0.0166,0,-0.0452,-0.0456,-0.0463,-0.0443,-0.0418,-0.0414,-0.0351,-0.0322,-0.0276,-0.0225,-0.0158,-0.0072,0.0004,0.0029,0.0072,0.0129,0.0152,0.0181,0.0212,0.0207,0.0266,0.0278,0.0159,0.0161,0.0162,0.0163,0,0,-0.0521,-0.0505,-0.0507,-0.0511,-0.0458,-0.0444,-0.0415,-0.0364,-0.0341,-0.0266,-0.0224,-0.0131,-0.0077,-0.003,0.0038,0.0104,0.0166,0.0146,0.0152,0.0192,0.0317,0.0364,0.0382,0.0204,0.0206,0.0207,0.0342,0,-0.0577,-0.0613,-0.0576,-0.0595,-0.0606,-0.053,-0.0507,-0.0447,-0.0382,-0.0323,-0.0217,-0.0155,-0.0099,-0.0063,0.0012,0.0131,0.0195,0.0126,0.0324,0.033,0.0366,0.0397,0.0345,0.0464,0.0354,0.0356,0.0358,0,-0.0637,-0.0654,-0.0691,-0.0674,-0.0669,-0.0661,-0.0602,-0.0572,-0.0466,-0.0413,-0.0322,-0.0233,-0.0119,-0.0077,0.0123,0.0076,0.0183,0.0275,0.0283,0.0365,0.04,0.0457,0.0491,0.0379,0.0377,0.0375,0.0374,0,-0.0716,-0.0728,-0.0763,-0.0757,-0.0726,-0.072,-0.0693,-0.0605,-0.0576,-0.0466,-0.0425,-0.0277,-0.0194,-0.0041,0.0153,0.014,0.0374,0.0385,0.0527,0.0531,0.0547,0.055,0.052,0.052,0.052,0.052,0.0519,0,-0.0792,-0.0817,-0.0807,-0.0828,-0.086,-0.0799,-0.0799,-0.0749,-0.0664,-0.062,-0.0482,-0.0404,-0.018,-0.0013,0.0145,0.0382,0.0376,0.0533,0.0579,0.0517,0.0516,0.0489,0.0483,0.0525,0.0524,0.0523,0.0522,0,-0.0875,-0.0868,-0.091,-0.0902,-0.0905,-0.0925,-0.0889,-0.0876,-0.0788,-0.0722,-0.0689,-0.0486,-0.0257,-0.0029,0.0242,0.038,0.0593,0.0673,0.0579,0.0612,0.0695,0.0684,0.0842,0.0845,0.0848,0.085,0.0851,0,-0.0923,-0.0956,-0.0983,-0.1015,-0.1018,-0.1032,-0.1036,-0.0958,-0.0926,-0.0761,-0.0729,-0.0497,-0.03,0.011,0.0394,0.0693,0.0676,0.0799,0.0773,0.0704,0.0733,0.0718,0.0704,0.0755,0.0756,0.0757,0.0757,0,-0.1012,-0.1016,-0.105,-0.1126,-0.1152,-0.1164,-0.1154,-0.1141,-0.1018,-0.0929,-0.0745,-0.0571,-0.0162,0.0183,0.056,0.0711,0.0747,0.0824,0.0802,0.0681,0.0634,0.0658,0.0645,0.0764,0.0763,0.0762,0.0762,0.0762,-0.1068,-0.1116,-0.1163,-0.1226,-0.1261,-0.1269,-0.1289,-0.1204,-0.1127,-0.0939,-0.0764,-0.0461,-0.0147,0.0416,0.0665,0.0878,0.0873,0.0904,0.0897,0.089,0.0855,0.0816,0.0972,0.0972,0.0973,0.0973,0.0974,0,-0.1136,-0.1183,-0.1258,-0.1317,-0.1377,-0.1373,-0.1349,-0.1332,-0.1217,-0.0945,-0.072,-0.0329,0.0082,0.0398,0.0766,0.0982,0.0938,0.098,0.0879,0.0871,0.0865,0.0825,0.0936,0.0936,0.0937,0.0938,0,0,-0.1173,-0.126,-0.1296,-0.1405,-0.1458,-0.1525,-0.1524,-0.1413,-0.1241,-0.0959,-0.0671,-0.0314,0.0087,0.0342,0.0597,0.0777,0.075,0.0772,0.0775,0.0611,0.0602,0.0793,0.0719,0,0,0,0,0]}],[{"header":{"parameterUnit":"m.s-1","parameterCategory":2,"la1":30.2991,"la2":30.254,"lo1":-89.0895,"lo2":-89.0444,"dy":0.0017,"dx":0.0017,"nx":28,"ny":28,"refTime":"2024-05-25T21:00:00:Z","depth":"4","parameterNumber":2,"parameterNumberName":"U-component_of_CURRENTS"},"data":[0,0,0,0,0,0,0,0,0,0,0,0,0,0,0,0,0,0,0,0,0,0,0,0,0,0,0,0,0,0,0,0,0,0,0,0,0,0,0,0,0,0,0,0,0,0,0,0,0,0,0,0,0,0,0,0,0,0,-0.1953,-0.1954,0,-0.2044,-0.2045,-0.2045,-0.2099,-0.2099,-0.21,-0.21,-0.2178,-0.218,-0.2182,0,0,0,0,0,0,0,0,0,0,0,0,0,-0.1816,-0.1819,-0.1953,-0.1954,-0.1955,-0.2044,-0.2045,-0.2046,-0.2099,-0.2099,-0.21,-0.21,-0.2178,-0.218,-0.2182,0,0,0,0,0,0,0,0,0,0,0,0,0,-0.1886,-0.1819,-0.1952,-0.1994,-0.1999,-0.2043,-0.2045,-0.2046,-0.2099,-0.2099,-0.21,-0.21,-0.2177,-0.2179,-0.2182,-0.2184,0,0,-0.219,-0.2191,0,0,0,0,0,0,0,0,-0.1882,-0.1891,-0.1987,-0.1991,-0.1997,-0.2063,-0.2026,-0.2092,-0.2098,-0.2058,-0.21,-0.2101,-0.214,-0.2145,-0.2158,-0.2188,-0.2191,-0.219,-0.2191,-0.2192,-0.2193,0,0,0,0,0,0,0,-0.1877,-0.1887,-0.1986,-0.1988,-0.1994,-0.2006,-0.2016,-0.2038,-0.2092,-0.2062,-0.2066,-0.208,-0.2142,-0.2155,-0.216,-0.2192,-0.219,-0.2192,-0.2194,-0.2195,-0.2321,-0.2323,0,0,0,0,0,0,-0.1871,-0.1883,-0.1983,-0.1989,-0.1943,-0.2008,-0.2019,-0.2039,-0.2092,-0.2102,-0.208,-0.2082,-0.215,-0.2157,-0.2163,-0.2256,-0.2192,-0.2195,-0.2196,-0.2319,-0.2322,-0.2324,0,0,0,0,0,0,-0.1868,-0.1879,-0.198,-0.1939,-0.1953,-0.201,-0.2031,-0.204,-0.2091,-0.2106,-0.2115,-0.2124,-0.2151,-0.2159,-0.2219,-0.2256,-0.2196,-0.2198,-0.2317,-0.232,-0.2323,-0.2387,0,0,0,0,0,0,-0.1863,-0.1877,-0.1905,-0.1939,-0.1956,-0.2032,-0.2031,-0.2042,-0.2097,-0.2102,-0.2147,-0.2153,-0.2152,-0.2215,-0.2221,-0.2259,-0.22,-0.2315,-0.2319,-0.2322,-0.2383,-0.2392,-0.24,0,0,0,0,0,-0.1858,-0.189,-0.1906,-0.1919,-0.1987,-0.2034,-0.2044,-0.2084,-0.2099,-0.2129,-0.2162,-0.2153,-0.2241,-0.2219,-0.2226,-0.2265,-0.2313,-0.2318,-0.2322,-0.2379,-0.239,-0.24,0,0,0,0,0,0,-0.1847,-0.1899,-0.1918,-0.1965,-0.2009,-0.2045,-0.2082,-0.2105,-0.2156,-0.2171,-0.218,-0.2189,-0.2254,-0.2253,-0.2228,-0.2312,-0.2275,-0.2281,-0.2316,-0.2327,-0.2335,-0.2329,-0.2202,0,0,0,0,0,-0.1857,-0.1896,-0.1942,-0.1984,-0.2009,-0.2052,-0.2082,-0.2111,-0.2152,-0.2177,-0.2208,-0.224,-0.227,-0.2295,-0.232,-0.2368,-0.2344,-0.2397,-0.2406,-0.2413,-0.2413,-0.2414,-0.2422,-0.2337,-0.2337,-0.2337,0,0,-0.1865,-0.1899,-0.1923,-0.1985,-0.2022,-0.207,-0.2073,-0.2133,-0.218,-0.2176,-0.2258,-0.2276,-0.2291,-0.2346,-0.2374,-0.2354,-0.2424,-0.2418,-0.2424,-0.2421,-0.2419,-0.2427,-0.2434,-0.234,-0.234,-0.2339,0,0,-0.1889,-0.1933,-0.1971,-0.2014,-0.208,-0.2107,-0.2133,-0.2193,-0.2231,-0.2301,-0.2309,-0.2352,-0.2407,-0.2421,-0.2432,-0.2504,-0.247,-0.2518,-0.2558,-0.2559,-0.2565,-0.2571,-0.2543,-0.2546,-0.2521,-0.2521,-0.2521,0,-0.1899,-0.1953,-0.1991,-0.204,-0.2083,-0.2128,-0.218,-0.2225,-0.23,-0.233,-0.2341,-0.2421,-0.2439,-0.2487,-0.2516,-0.2522,-0.2507,-0.2516,-0.2568,-0.2573,-0.2577,-0.2548,-0.255,-0.2525,-0.2525,-0.2524,-0.2524,0,-0.1941,-0.2002,-0.2031,-0.2107,-0.2155,-0.2212,-0.2272,-0.233,-0.2379,-0.2413,-0.2487,-0.2511,-0.255,-0.2569,-0.2568,-0.2614,-0.2587,-0.2577,-0.2537,-0.2589,-0.2555,-0.2556,-0.253,-0.2529,-0.2528,-0.2527,0,0,-0.1916,-0.2037,-0.2052,-0.2099,-0.2199,-0.2236,-0.2323,-0.2397,-0.2445,-0.2515,-0.2567,-0.2629,-0.2634,-0.2648,-0.2652,-0.2662,-0.2681,-0.2641,-0.2639,-0.2604,-0.2666,-0.2488,-0.2471,-0.2682,-0.2683,-0.2684,-0.2626,0,-0.1942,-0.2035,-0.2095,-0.2191,-0.2241,-0.2316,-0.2386,-0.246,-0.2518,-0.2578,-0.2612,-0.2663,-0.2666,-0.2686,-0.27,-0.2691,-0.2688,-0.2696,-0.2629,-0.2626,-0.2453,-0.2467,-0.2686,-0.2626,-0.2626,-0.2627,-0.2627,0,-0.1953,-0.2019,-0.2115,-0.223,-0.226,-0.2327,-0.2431,-0.2499,-0.2586,-0.2629,-0.2681,-0.2704,-0.2744,-0.273,-0.2735,-0.2742,-0.271,-0.2693,-0.269,-0.2499,-0.2448,-0.2566,-0.2627,-0.2627,-0.2627,-0.2627,-0.2627,0,-0.1891,-0.2026,-0.2102,-0.2146,-0.2283,-0.2343,-0.2415,-0.2515,-0.2568,-0.2655,-0.269,-0.274,-0.2761,-0.2753,-0.2724,-0.2738,-0.2698,-0.2705,-0.2508,-0.2495,-0.2645,-0.264,-0.2689,-0.2689,-0.2689,-0.2689,-0.2689,0,-0.1871,-0.1936,-0.2087,-0.2128,-0.2213,-0.2319,-0.2407,-0.2481,-0.2579,-0.2615,-0.2704,-0.2713,-0.277,-0.2755,-0.2726,-0.26,-0.2694,-0.2503,-0.2466,-0.2673,-0.2672,-0.2644,-0.264,-0.2687,-0.2687,-0.2688,-0.2688,0,-0.1784,-0.1892,-0.1982,-0.2138,-0.2187,-0.2245,-0.2392,-0.2441,-0.2551,-0.2596,-0.2623,-0.2701,-0.2669,-0.2681,-0.265,-0.2571,-0.249,-0.2417,-0.2616,-0.2594,-0.2289,-0.2289,-0.2199,-0.2192,-0.2186,-0.2181,-0.2177,0,-0.1744,-0.1786,-0.1958,-0.2007,-0.2085,-0.2191,-0.2256,-0.2401,-0.2438,-0.255,-0.254,-0.2569,-0.2588,-0.2389,-0.2435,-0.2343,-0.2317,-0.2268,-0.2301,-0.2264,-0.2239,-0.2248,-0.2256,-0.2168,-0.2167,-0.2165,-0.2164,0,-0.1653,-0.1733,-0.1805,-0.1905,-0.1992,-0.207,-0.2167,-0.2176,-0.2312,-0.2441,-0.2376,-0.2342,-0.2292,-0.2252,-0.2185,-0.213,-0.2305,-0.2208,-0.222,-0.2251,-0.2226,-0.2208,-0.2223,-0.2143,-0.2146,-0.2148,-0.2149,0,-0.1579,-0.1603,-0.1702,-0.1765,-0.1871,-0.1896,-0.198,-0.2007,-0.206,-0.2187,-0.2151,-0.2178,-0.2252,-0.2136,-0.2077,-0.2005,-0.1987,-0.1939,-0.1965,-0.1988,-0.1946,-0.1885,-0.1651,0,0,0,0,0,-0.1489,-0.1488,-0.1546,-0.1601,-0.1699,-0.1741,-0.1887,-0.1972,-0.2101,-0.1996,-0.2066,-0.2003,-0.192,-0.194,-0.1817,-0.1988,-0.2001,-0.184,-0.1962,-0.2032,-0.2056,-0.2026,0,0,0,0,0,0,-0.1427,-0.1476,-0.1485,-0.1439,-0.143,-0.1509,-0.1589,-0.1692,-0.1646,-0.1785,-0.1742,-0.1855,-0.1797,-0.1918,-0.1752,-0.176,-0.1795,-0.1874,-0.1869,-0.2019,-0.204,-0.2059,-0.2036,0,0,0,0,0]},{"header":{"parameterUnit":"m.s-1","parameterCategory":2,"la1":30.2991,"la2":30.254,"lo1":-89.0895,"lo2":-89.0444,"dy":0.0017,"dx":0.0017,"nx":28,"ny":28,"refTime":"2024-05-25T21:00:00:Z","depth":"4","parameterNumber":3,"parameterNumberName":"V-component_of_CURRENTS"},"data":[0,0,0,0,0,0,0,0,0,0,0,0,0,0,0,0,0,0,0,0,0,0,0,0,0,0,0,0,0,0,0,0,0,0,0,0,0,0,0,0,0,0,0,0,0,0,0,0,0,0,0,0,0,0,0,0,0,0,-0.0194,-0.0193,0,-0.012,-0.012,-0.0119,-0.0072,-0.0072,-0.0072,-0.0072,0.0046,0.0049,0.0052,0,0,0,0,0,0,0,0,0,0,0,0,0,-0.0246,-0.0246,-0.0194,-0.0193,-0.0192,-0.0121,-0.0119,-0.0118,-0.0072,-0.0072,-0.0072,-0.0072,0.0045,0.0048,0.0052,0,0,0,0,0,0,0,0,0,0,0,0,0,-0.0202,-0.0245,-0.0194,-0.0162,-0.0158,-0.0121,-0.0119,-0.0118,-0.0072,-0.0072,-0.0072,-0.0072,0.0044,0.0048,0.0052,0.0076,0,0,0.0066,0.0068,0,0,0,0,0,0,0,0,-0.0205,-0.02,-0.0167,-0.0164,-0.016,-0.0107,-0.0095,-0.0051,-0.0072,-0.0103,-0.0072,-0.0072,-0.0002,0.0006,0.0021,0.0082,0.0087,0.0067,0.0069,0.0071,0.0073,0,0,0,0,0,0,0,-0.0208,-0.0203,-0.0163,-0.0166,-0.0162,-0.0135,-0.0128,-0.0086,-0.0053,-0.0101,-0.0097,-0.0092,0.0,0.0016,0.0024,0.0088,0.0066,0.007,0.0073,0.0075,0.0193,0.0194,0,0,0,0,0,0,-0.0222,-0.0206,-0.0166,-0.0161,-0.0184,-0.0134,-0.0127,-0.0123,-0.0054,-0.0044,-0.0092,-0.009,0.0009,0.0019,0.0028,0.0066,0.0071,0.0075,0.0078,0.0193,0.0194,0.0194,0,0,0,0,0,0,-0.0224,-0.022,-0.0169,-0.0183,-0.0175,-0.0134,-0.0129,-0.0121,-0.0107,-0.0048,-0.0037,-0.0086,0.0009,0.0022,0.0066,0.0071,0.0077,0.0082,0.0192,0.0193,0.0194,0.0137,0,0,0,0,0,0,-0.0226,-0.0221,-0.0225,-0.0184,-0.0174,-0.0153,-0.0129,-0.012,-0.0104,-0.0101,-0.0039,-0.0028,0.001,0.0059,0.0071,0.0077,0.0085,0.0192,0.0193,0.0194,0.0139,0.0136,0.0134,0,0,0,0,0,-0.0228,-0.0235,-0.0226,-0.0221,-0.0181,-0.0154,-0.0147,-0.0116,-0.0104,-0.0101,-0.0056,-0.003,0.0073,0.0063,0.0077,0.0084,0.0191,0.0193,0.0193,0.014,0.0137,0.0134,0,0,0,0,0,0,-0.026,-0.023,-0.0219,-0.0217,-0.0192,-0.0147,-0.0144,-0.0121,-0.0083,-0.008,-0.0024,-0.001,0.0029,0.0066,0.0054,0.0122,0.0137,0.014,0.0091,0.0089,0.0086,0.007,0.0089,0,0,0,0,0,-0.0271,-0.027,-0.0234,-0.0234,-0.0224,-0.0186,-0.0172,-0.0151,-0.0112,-0.0096,-0.0052,-0.0002,0.0044,0.0072,0.0114,0.0153,0.0188,0.0168,0.0165,0.0163,0.016,0.0223,0.0225,0.0197,0.0197,0.0197,0,0,-0.0284,-0.0268,-0.0268,-0.0241,-0.022,-0.0209,-0.0177,-0.0161,-0.0147,-0.0088,-0.0057,-0.0012,0.0051,0.0092,0.0113,0.0124,0.0187,0.0164,0.0161,0.016,0.0224,0.0227,0.0229,0.0198,0.0198,0.0198,0,0,-0.0313,-0.0297,-0.0306,-0.0287,-0.0261,-0.0233,-0.0232,-0.019,-0.0167,-0.0132,-0.0085,-0.0037,0.0029,0.008,0.0113,0.0125,0.0167,0.0137,0.0119,0.0179,0.0182,0.0184,0.0218,0.0225,0.0142,0.0141,0.0141,0,-0.0333,-0.0337,-0.0305,-0.0305,-0.0294,-0.0248,-0.0251,-0.0218,-0.0165,-0.0144,-0.0131,-0.0025,0.0025,0.0089,0.0093,0.012,0.015,0.0121,0.0175,0.0178,0.0182,0.0216,0.0224,0.0139,0.0139,0.0139,0.014,0,-0.036,-0.0366,-0.037,-0.0354,-0.0336,-0.0332,-0.0284,-0.0262,-0.023,-0.0191,-0.0132,-0.0059,0.0004,0.0031,0.0066,0.0121,0.0131,0.0157,0.0177,0.0181,0.0217,0.0226,0.0135,0.0136,0.0137,0.0137,0,0,-0.0404,-0.0394,-0.0397,-0.0403,-0.0363,-0.0353,-0.0326,-0.0286,-0.0271,-0.0208,-0.0177,-0.0088,-0.0049,-0.0008,0.0049,0.0107,0.0157,0.0137,0.0142,0.016,0.0271,0.0254,0.0262,0.0191,0.0193,0.0194,0.028,0,-0.044,-0.0464,-0.0438,-0.0453,-0.046,-0.0408,-0.0389,-0.0343,-0.0295,-0.0251,-0.0162,-0.0113,-0.0062,-0.0034,0.0032,0.0129,0.018,0.013,0.0273,0.0277,0.0254,0.0273,0.0199,0.0286,0.0289,0.029,0.0291,0,-0.0475,-0.0488,-0.0517,-0.051,-0.0507,-0.0505,-0.0466,-0.0442,-0.0361,-0.0322,-0.0249,-0.0179,-0.0081,-0.0045,0.012,0.0083,0.0166,0.024,0.0245,0.0256,0.0278,0.0288,0.0308,0.0307,0.0305,0.0304,0.0303,0,-0.0527,-0.054,-0.0569,-0.0566,-0.0548,-0.055,-0.0535,-0.0471,-0.0451,-0.037,-0.0342,-0.0217,-0.0154,-0.0026,0.0128,0.0124,0.0303,0.0321,0.0382,0.0381,0.0394,0.0391,0.0429,0.0429,0.0429,0.0428,0.0428,0,-0.0569,-0.0594,-0.0604,-0.0621,-0.0656,-0.0614,-0.0625,-0.059,-0.0532,-0.0502,-0.0391,-0.0332,-0.0145,-0.0017,0.0115,0.0275,0.0297,0.0379,0.0408,0.0366,0.0359,0.04,0.0395,0.0432,0.0431,0.043,0.043,0,-0.0618,-0.0624,-0.0664,-0.0674,-0.0686,-0.071,-0.0704,-0.0698,-0.0638,-0.0594,-0.057,-0.0413,-0.0241,-0.0059,0.0158,0.0251,0.0409,0.0457,0.0382,0.0406,0.0445,0.0436,0.0528,0.0528,0.0528,0.0528,0.0529,0,-0.0643,-0.0672,-0.0721,-0.0759,-0.0773,-0.0802,-0.0816,-0.0766,-0.0745,-0.0633,-0.0608,-0.0445,-0.0321,-0.0028,0.0154,0.0395,0.0428,0.0492,0.0483,0.0439,0.0458,0.045,0.0441,0.0529,0.0529,0.0529,0.0529,0,-0.0694,-0.0716,-0.0751,-0.0839,-0.0879,-0.0904,-0.0913,-0.0901,-0.0816,-0.0768,-0.0616,-0.0448,-0.0257,-0.0028,0.0157,0.0331,0.0443,0.0495,0.0495,0.0487,0.0441,0.0459,0.045,0.053,0.053,0.053,0.053,0,-0.0733,-0.0775,-0.0835,-0.0902,-0.0965,-0.0984,-0.0974,-0.0915,-0.0875,-0.0728,-0.0679,-0.0454,-0.0314,-0.0061,0.0114,0.0279,0.0317,0.0357,0.0366,0.0367,0.0295,0.0212,0.0257,0,0,0,0,0,-0.0766,-0.0819,-0.0894,-0.0964,-0.1025,-0.1056,-0.1028,-0.099,-0.0904,-0.0802,-0.0731,-0.0541,-0.0252,-0.0123,0.004,0.0092,0.0319,0.0283,0.0362,0.0534,0.0533,0.0475,0,0,0,0,0,0,-0.0791,-0.0868,-0.0902,-0.1001,-0.1062,-0.1111,-0.1092,-0.1026,-0.0941,-0.0833,-0.0671,-0.0548,-0.0266,-0.0366,0.002,0.0073,0.0138,0.043,0.0433,0.0535,0.0534,0.0533,0.0473,0,0,0,0,0]}]]